Location: Unspecified
(0.0000°N, 0.0000°E)
Time: 10:24:14
(UTC+01:00)

AO-40 - Visible Passes

Search period start: 27 February 2017 00:00
Search period end: 09 March 2017 00:00
Orbit: 1037 x 58783 km, 6.3° (Epoch: 27 February)

Date Brightness Start Highest point End Pass type
(mag) Time Alt. Az. Time Alt. Az. Time Alt. Az.
27 Feb ? 21:10:27 10° W 22:44:40 70° WSW 05:10:43 10° W visible
28 Feb ? 15:57:39 10° WNW 00:08:39 83° S 06:47:48 10° W daylight
01 Mar ? 19:06:59 10° E 01:54:50 83° S 05:49:11 10° E visible
02 Mar ? 21:00:53 10° E 22:57:50 20° E 00:03:34 10° E visible
03 Mar ? 20:42:00 10° W 22:15:46 74° WSW 05:02:09 10° W visible
04 Mar ? 15:29:59 10° WNW 00:00:02 83° S 06:42:22 10° W daylight
05 Mar ? 18:58:11 10° E 01:52:08 83° S 05:21:14 10° E visible
06 Mar ? 21:01:01 10° E 22:30:27 17° E 23:26:41 10° E visible
07 Mar ? 20:13:38 10° W 21:46:31 78° WSW 04:53:31 10° W visible
